TimeEDT,TemperatureF,Dew PointF,Humidity,Sea Level PressureIn,VisibilityMPH,Wind Direction,Wind SpeedMPH,Gust SpeedMPH,PrecipitationIn,Events,Conditions,WindDirDegrees,DateUTC
12:15 AM,53.6,50.0,88,29.91,10.0,ESE,6.9,-,N/A,,Clear,120,2013-05-10 04:15:00
1:15 AM,51.8,48.2,88,29.92,10.0,SE,8.1,-,N/A,,Overcast,140,2013-05-10 05:15:00
2:15 AM,51.8,48.2,88,29.93,10.0,SSE,3.5,-,N/A,,Overcast,150,2013-05-10 06:15:00
2:35 AM,51.8,48.2,88,29.93,10.0,SE,5.8,-,N/A,,Overcast,130,2013-05-10 06:35:00
2:55 AM,51.8,48.2,88,29.93,10.0,SE,5.8,-,N/A,,Overcast,140,2013-05-10 06:55:00
3:35 AM,51.8,48.2,88,29.93,10.0,SSE,4.6,-,N/A,,Overcast,160,2013-05-10 07:35:00
3:55 AM,51.8,48.2,88,29.94,10.0,SE,3.5,-,N/A,,Overcast,130,2013-05-10 07:55:00
4:15 AM,51.8,48.2,88,29.94,10.0,SE,4.6,-,N/A,,Overcast,130,2013-05-10 08:15:00
4:35 AM,51.8,48.2,88,29.94,10.0,SSE,3.5,-,N/A,,Overcast,150,2013-05-10 08:35:00
4:55 AM,51.8,48.2,88,29.95,10.0,ESE,5.8,-,N/A,,Overcast,120,2013-05-10 08:55:00
5:15 AM,50.0,46.4,87,29.94,10.0,SE,4.6,-,N/A,,Mostly Cloudy,140,2013-05-10 09:15:00
5:35 AM,50.0,48.2,94,29.95,10.0,SE,3.5,-,N/A,,Partly Cloudy,140,2013-05-10 09:35:00
5:55 AM,48.2,46.4,93,29.95,10.0,SE,6.9,-,N/A,,Scattered Clouds,130,2013-05-10 09:55:00
6:15 AM,48.2,48.2,100,29.96,10.0,SE,4.6,-,N/A,,Clear,140,2013-05-10 10:15:00
6:35 AM,50.0,46.4,87,29.97,10.0,SSE,4.6,-,N/A,,Clear,150,2013-05-10 10:35:00
6:55 AM,51.8,48.2,88,29.97,10.0,ESE,4.6,-,N/A,,Clear,110,2013-05-10 10:55:00
7:15 AM,53.6,50.0,88,29.98,10.0,Calm,Calm,-,N/A,,Partly Cloudy,0,2013-05-10 11:15:00
7:35 AM,53.6,50.0,88,29.98,10.0,Calm,Calm,-,N/A,,Clear,0,2013-05-10 11:35:00
8:15 AM,57.2,51.8,82,29.97,10.0,SE,4.6,-,N/A,,Clear,140,2013-05-10 12:15:00
8:35 AM,57.2,51.8,82,29.98,10.0,WSW,4.6,-,N/A,,Clear,240,2013-05-10 12:35:00
9:15 AM,60.8,51.8,72,29.98,10.0,Calm,Calm,-,N/A,,Mostly Cloudy,0,2013-05-10 13:15:00
9:35 AM,62.6,53.6,72,29.98,10.0,NE,3.5,-,N/A,,Overcast,40,2013-05-10 13:35:00
9:55 AM,62.6,53.6,72,29.97,10.0,WNW,5.8,-,N/A,,Mostly Cloudy,290,2013-05-10 13:55:00
10:15 AM,64.4,51.8,64,29.97,10.0,Calm,Calm,-,N/A,,Clear,0,2013-05-10 14:15:00
10:35 AM,64.4,53.6,68,29.98,10.0,WNW,5.8,-,N/A,,Clear,300,2013-05-10 14:35:00
10:55 AM,66.2,53.6,64,29.98,10.0,NNE,6.9,-,N/A,,Clear,20,2013-05-10 14:55:00
11:15 AM,66.2,53.6,64,29.98,10.0,North,5.8,-,N/A,,Mostly Cloudy,350,2013-05-10 15:15:00
11:35 AM,66.2,53.6,64,29.97,10.0,NNW,6.9,-,N/A,,Mostly Cloudy,330,2013-05-10 15:35:00
11:55 AM,68.0,53.6,60,29.96,10.0,NW,4.6,-,N/A,,Partly Cloudy,310,2013-05-10 15:55:00
12:15 PM,69.8,55.4,60,29.95,10.0,WNW,5.8,-,N/A,,Partly Cloudy,300,2013-05-10 16:15:00
12:35 PM,69.8,53.6,56,29.95,10.0,North,4.6,-,N/A,,Mostly Cloudy,360,2013-05-10 16:35:00
1:15 PM,69.8,53.6,56,29.94,10.0,West,5.8,-,N/A,,Scattered Clouds,280,2013-05-10 17:15:00
1:35 PM,69.8,53.6,56,29.94,10.0,NW,5.8,-,N/A,,Mostly Cloudy,310,2013-05-10 17:35:00
1:55 PM,69.8,53.6,56,29.94,10.0,NW,5.8,-,N/A,,Partly Cloudy,320,2013-05-10 17:55:00
2:15 PM,71.6,53.6,53,29.93,10.0,WNW,5.8,-,N/A,,Clear,300,2013-05-10 18:15:00
2:35 PM,71.6,51.8,50,29.92,10.0,NNE,4.6,-,N/A,,Clear,20,2013-05-10 18:35:00
2:55 PM,73.4,51.8,47,29.92,10.0,West,3.5,-,N/A,,Clear,270,2013-05-10 18:55:00
3:15 PM,73.4,50.0,44,29.92,10.0,West,8.1,-,N/A,,Clear,270,2013-05-10 19:15:00
3:35 PM,73.4,50.0,44,29.91,10.0,WSW,6.9,-,N/A,,Clear,240,2013-05-10 19:35:00
3:55 PM,71.6,48.2,43,29.91,10.0,West,4.6,-,N/A,,Clear,280,2013-05-10 19:55:00
4:15 PM,71.6,50.0,46,29.91,10.0,WNW,3.5,-,N/A,,Clear,290,2013-05-10 20:15:00
4:35 PM,73.4,51.8,47,29.91,10.0,West,5.8,-,N/A,,Clear,270,2013-05-10 20:35:00
4:55 PM,73.4,50.0,44,29.91,10.0,West,5.8,-,N/A,,Clear,270,2013-05-10 20:55:00
5:15 PM,73.4,50.0,44,29.91,10.0,West,6.9,-,N/A,,Partly Cloudy,260,2013-05-10 21:15:00
5:35 PM,73.4,46.4,38,29.90,10.0,WSW,5.8,-,N/A,,Partly Cloudy,240,2013-05-10 21:35:00
5:55 PM,71.6,46.4,41,29.90,10.0,WSW,5.8,-,N/A,,Clear,250,2013-05-10 21:55:00
6:15 PM,71.6,48.2,43,29.89,10.0,SSE,4.6,-,N/A,,Partly Cloudy,150,2013-05-10 22:15:00
6:35 PM,71.6,46.4,41,29.89,10.0,SSW,4.6,-,N/A,,Scattered Clouds,210,2013-05-10 22:35:00
6:55 PM,71.6,48.2,43,29.89,10.0,South,3.5,-,N/A,,Mostly Cloudy,170,2013-05-10 22:55:00
7:15 PM,69.8,46.4,43,29.89,10.0,SSE,3.5,-,N/A,,Scattered Clouds,150,2013-05-10 23:15:00
7:35 PM,68.0,51.8,56,29.89,10.0,SE,4.6,-,N/A,,Mostly Cloudy,130,2013-05-10 23:35:00
7:55 PM,66.2,50.0,56,29.89,10.0,ESE,6.9,-,N/A,,Mostly Cloudy,120,2013-05-10 23:55:00
8:15 PM,66.2,50.0,56,29.88,10.0,SE,8.1,-,N/A,,Scattered Clouds,130,2013-05-11 00:15:00
8:35 PM,64.4,50.0,59,29.87,10.0,SE,5.8,-,N/A,,Clear,130,2013-05-11 00:35:00
8:55 PM,64.4,51.8,64,29.88,10.0,SE,9.2,-,N/A,,Clear,130,2013-05-11 00:55:00
9:15 PM,62.6,51.8,68,29.88,10.0,SE,9.2,-,N/A,,Clear,130,2013-05-11 01:15:00
9:35 PM,62.6,51.8,68,29.87,10.0,ESE,10.4,-,N/A,,Partly Cloudy,120,2013-05-11 01:35:00
9:55 PM,62.6,50.0,63,29.87,10.0,SE,10.4,-,N/A,,Mostly Cloudy,130,2013-05-11 01:55:00
10:15 PM,62.6,50.0,63,29.87,10.0,SE,9.2,-,N/A,,Mostly Cloudy,140,2013-05-11 02:15:00
10:35 PM,62.6,50.0,63,29.86,10.0,SE,6.9,-,N/A,,Partly Cloudy,130,2013-05-11 02:35:00
10:55 PM,62.6,50.0,63,29.86,10.0,SE,9.2,-,N/A,,Clear,130,2013-05-11 02:55:00
11:15 PM,62.6,50.0,63,29.85,10.0,SE,9.2,-,N/A,,Clear,140,2013-05-11 03:15:00
11:35 PM,62.6,50.0,63,29.85,10.0,SE,9.2,-,N/A,,Scattered Clouds,140,2013-05-11 03:35:00
11:55 PM,62.6,50.0,63,29.84,10.0,SE,8.1,-,N/A,,Mostly Cloudy,130,2013-05-11 03:55:00